パンスターズ彗星

C/2020 S4 ( PanSTARRS )

English version
Home page
Updated on September 11, 2022

---------------------------------------------------------------------

・ プロフィール

発見日 2020年9月16日
発見光度 21.3等
発見者 Pan-STARRS 1 telescope (Haleakala)

・ 写真集

・ 軌道要素

Epoch 2022 Aug. 9.0 TT = JDT 2459800.5
T 2023 Feb.  9.26587 TT                                 Rudenko
q   3.3696547            (2000.0)            P               Q
z  -0.0002435      Peri.   20.99573     -0.73125424     -0.60705753
 +/-0.0000021      Node   117.72294     +0.56498700     -0.79455030
e   1.0008205      Incl.   20.57173     +0.38217395     +0.01307572
From 559 observations 2020 Sept. 16-2022 Aug. 31, mean residual 0".5.

・ 星図

・ 光度変化

        m1 = 6.8 + 5 logΔ + 10.0 log r

---------------------------------------------------------------------

軌道要素はM.P.E.C. 2022-R68に掲載されたものです。
星図はステラナビゲータ Ver.10 (アストロアーツ) で作成したものです。
光度グラフはComet for Windowsで作成したものです。

---------------------------------------------------------------------

Copyright(C) Seiichi Yoshida (comet@aerith.net). All rights reserved.